Terug naar catalogus

STARLINK-36467

ActiefCommunicatieVLEO
NORAD 67348·PAYLOAD·🇺🇸 United States

Gelanceerd Jan 9, 2026 vanaf Cape Canaveral Space Force Station

Loading…

Volgende Passages (komende 24 uur)

TLE

VersSource: CelesTrak SupGP

Epoch: Sep 15, 2026, 03:46 UTC

1 67348C 26003Q   26258.15743056 -.00023453  00000+0 -85022-3 0  2589
2 67348  43.0022 237.2236 0001195 266.1795 272.1721 15.27561031    12

Volg STARLINK-36467 in realtime met AllMySat

Download on the App Store